Location: The Saddle
(36.8333°N, 80.3417°W)
Time: 09:09:39
(UTC-04:00)

A-11 Canister half - Pass Details

Date: 31 May 2024
Orbit: 1515 x 1685 km, 47.2° (Epoch: 17 June)

Event Time Altitude Azimuth Distance (km) Brightness Sun altitude
Exits shadow 01:39:59 19° 253° (WSW) 3,166 10.4 -31.0°
Maximum altitude 01:47:29 69° 333° (NNW) 1,671 9.2 -30.8°
Drops below altitude 10° 01:56:53 10° 57° (ENE) 3,716 11.5 -30.5°
Sets 01:59:56 0° 60° (ENE) 4,685 12.1 -30.4°
